SZ-19 DEB, 63801

Orbit data source: Space-Track

SZ-19 DEB, 63801 is space debris in LEO originally from a launch on Tue, 29 Oct 2024 UTC launched from the Jiuquan Satellite Launch Center, China (JSC). Debris objects in space refer to the collection of defunct objects orbiting the Earth. Examples of debris include non-operational satellites, rocket bodies, and fragments generated from explosions, collisions, or faulty payload assembly.

Loading next visibility...
Identifier
63801, 2024-194E
Orbit
LEO
Last TLE update
5 hours ago
Origin
Flag of CNCMSEO (CN / PRC)
Manufacturer
CAST
Mission
Spacecraft
Bus & Motor
SHENZHOU OM, Unknown motor
Mass
~1,842 kg wet, ~1,500 kg dry
Launch date (UTC)
2024-10-29 (6 months ago)
Launch vehicle
Unknown
Launch site
Jiuquan Satellite Launch Center, China (JSC)
Object type
Payload
Rocket body
Debris
Shape & HBR
Unknown
Radar Cross Section
RCS unknown

Expand to show TLE details & history

TLE from 5 hours ago
0 SZ-19 DEB
1 63801U 24194E   25131.50884686  .00029486  00000-0  33287-3 0  9990
2 63801  41.4740 243.5977 0004527 340.6163  19.4503 15.61828340  1515
Epoch: 2025-05-11T12:12Z
Definitive object data (Epoch: 2025-05-11T12:12:44.368Z)
Latitude
-0.00006°
Longitude
-169.12251°
Altitude
379.091 km
Speed
7.686 km/s
True Right ascension
16h 14m 23s
True Declination
0° 00' 00"
Sunlit
Object was in full shadow at TLE epoch
Visualization TLE readout
Latitude
6.24934°
Longitude
-163.22572°
Altitude
378.634 km
Speed
7.687 km/s
Apparent Right ascension
15h 11m 22s
Apparent Declination
-17° 41' 42"
Sunlit
Object is in full shadow
Visualization observer readout
Local Sidereal Time
01:09:48
Azimuth
301.4° NW
Elevation
-55.622°
Doppler factor
1
Orbital elements
Apogee altitude
387.671 km
Perigee altitude
381.548 km
Semi-major axis
6,762.746 km
Eccentricity
0.0004527
Inclination
41.474°
RAAN
243.5977°
Arg. of periapsis
340.6163°
True anomaly
19.46758°
Mean anomaly
19.4503°
Eccentric anomaly
19.45894°
Mean motion
3.90264 °/min
BSTAR
0.00033287
Orbital period
92.25 mins
Loading maneuver chart data...
Loading SW <> Apogee altitude chart data...
Loading historical data...
Loading historical data...
Loading historical data...
Loading historical data...
Loading historical data...
Loading historical data...
Loading historical data...

SZ-19 DEB Visibility forecast

Observer location: undefined°, undefined°

Span
Click to sort rows by Start time (UTC) header in descending order
Start Az.
Max El. time (UTC)
Max El. Az.
Max El.
End time (UTC)
End Az.
4 mins2025-05-12 11:29:22.785Z232.424° WSW2025-05-12 11:31:22.785Z144.84° SSE39.312°2025-05-12 11:33:22.785Z85.194° E
4 mins2025-05-12 13:06:22.785Z280.313° WNW2025-05-12 13:08:22.785Z37.789° NE40.198°2025-05-12 13:10:22.785Z77.26° E
4 mins2025-05-12 14:43:22.785Z282.34° WNW2025-05-12 14:45:22.785Z107.353° ESE41.304°2025-05-12 14:47:22.785Z104.762° ESE
|